Showing default

ERNST, 60528

Orbit data source: Space-Track

ERNST, 60528 is a German payload satellite in SSO that was launched on Fri, 16 Aug 2024 UTC via an FALCON 9 launch vehicle from the Air Force Western Test Range (AFWTR). Payload-class satellites include a variety of spacecraft equipped with specific instruments for various scientific and technological missions. These include communications satellites like Starlink; space stations such as the ISS; scientific satellites like the Hubble; Earth observation satellites from companies like Planet Labs, Umbra, and HawkEye 360; GPS; miniature CubeSats for education and research; and military/defense satellites.

Loading next visibility...
Identifier
60528, 2024-149BN
Orbit
SSO
Country
Flag of DEDE / GER
Related business
Manufacturer
FRAUN
Mission
Operational Amateur Technology
Bus & Motor
CUBESAT 12U, Unknown motor
Mass
20 kg wet, 20 kg dry
Launch date (UTC)
2024-08-16 (2 years ago)
Launch vehicle
FALCON 9
Launch site
Air Force Western Test Range (AFWTR)
Object type
Payload
Rocket body
Debris
Shape & HBR
Box + 2 Pan + 1 Sail, 0.8 m
Radar Cross Section
0.205 m², Medium (>0.1 m² and < 1m²)

Expand to show TLE details & history
Last TLE update: 22 hours ago

TLE from 22 hours ago
0 ERNST
1 60528U 24149BN  26174.47554938  .00010976  00000-0  28306-3 0  9991
2 60528  97.3804 258.2426 0004420 267.3455  92.7285 15.39345524103249
Epoch: 2026-06-23T11:24Z
TLE epoch observation values (Epoch: 2026-06-23T11:24:47.466Z)
Latitude
0.00001°
Longitude
175.39825°
Altitude
451.306 km
Speed
7.641 km/s
True Right ascension
17h 12m 58s
True Declination
0° 00' 00"
Sunlit
Object was in full shadow at epoch
Visualization orbit readout
Latitude
Unknown
Longitude
Unknown
Altitude
Unknown
Speed
Unknown
Apparent Right ascension
Unknown
Apparent Declination
Unknown
Sunlit
N/A
Visualization observer readout
Local Sidereal Time
20:48:27
Azimuth
Unknown
Elevation
Unknown
Doppler factor
Unknown
Orbital elements
Apogee altitude
447.998 km
Perigee altitude
441.967 km
Semi-major axis
6,823.119 km
Eccentricity
0.00044
Inclination
97.3804°
RAAN
258.2426°
Arg. of periapsis
267.3455°
True anomaly
92.77909°
Mean anomaly
92.7285°
Eccentric anomaly
92.7538°
Mean motion
3.85096 °/min
Orbital period
93.48 mins
BSTAR
0.00028306
Loading maneuver chart data...
Computing Atmospheric mass density...
Loading historical data...
Loading historical data...
Loading historical data...
Loading historical data...
Loading historical data...
Loading historical data...
Loading historical data...

Documentation

Showing up to 5 results
|